Location: Unspecified
(0.0000°N, 0.0000°E)
Time: 13:23:31
(UTC+00:00)

Oscar 18 - Pass Details

Date: 18 June 2023
Orbit: 773 x 788 km, 98.9° (Epoch: 23 September)

Event Time Altitude Azimuth Distance (km) Brightness Sun altitude
Rises 04:33:54 0° 4° (N) 3,236 14.2 -19.9°
Reaches altitude 10° 04:36:14 10° 359° (N) 2,311 13.4 -19.4°
Maximum altitude 04:41:11 53° 283° (WNW) 943 10.7 -18.3°
Enters shadow 04:43:49 27° 218° (SW) 1,466 11.6 -17.7°
